Regional Weather Roundup
Issued by NWS Albany, NY

Home | Current Version | Previous Version | Text Only | Print | Product List | Glossary On
Versions: 1 2 3 4 5 6 7 8 9 10 11 12 13 14 15 16 17 18 19 20 21 22 23 24 25 26 27 28 29 30 31 32 33 34 35 36 37 38 39 40 41 42 43 44 45 46 47 48 49 50
000
ASUS41 KALY 220310
RWRALY

NEW YORK STATE HOURLY WEATHER ROUNDUP
NATIONAL WEATHER SERVICE ALBANY NY
1100 PM EDT SUN SEP 21 2014

NOTE: "FAIR" INDICATES FEW OR NO CLOUDS BELOW 12,000 FEET WITH NO
SIGNIFICANT WEATHER AND/OR NO OBSTRUCTIONS TO VISIBILITY.

NYZ032-033-038>043-046>054-057>066-NYZ062>081-220400-
EAST


CITY           SKY/WX    TMP DP  RH WIND       PRES   REMARKS
ALBANY         CLOUDY    62  55  77 CALM      29.62S
GLENS FALLS    CLOUDY    66  56  70 W8        29.59R
POUGHKEEPSIE   LGT RAIN  68  65  90 VRB7      29.61R
NEWBURGH       MOCLDY    68  66  94 W16       29.65
MONTGOMERY     CLOUDY    68  59  73 W9        29.64R
WHITE PLAINS   CLEAR     68  65  90 CALM      29.62F
ISLIP          PTCLDY    67  66  97 W5        29.61S
NEW YORK CITY  MOCLDY    72  67  84 SW9       29.62S
CENTRAL PARK   PTCLDY    71  67  87 VRB3      29.65S
$$

NYZ005>009-017-018-044>046-055-056-220400-
CENTRAL


CITY           SKY/WX    TMP DP  RH WIND       PRES   REMARKS
FULTON         CLOUDY    63  53  70 SW8       29.63R
SYRACUSE       MOCLDY    64  54  69 SW12      29.63R
ROME           MOCLDY    58  57  97 CALM      29.64S
ELMIRA         CLEAR     55  54  96 CALM      29.70R
BINGHAMTON     CLOUDY    58  53  84 W6        29.70R
MONTICELLO     CLOUDY    59  59 100 W6        29.70R
$$

NYZ026>034-041>043-220400-
NORTH


CITY           SKY/WX    TMP DP  RH WIND       PRES   REMARKS
WATERTOWN      CLOUDY    62  54  74 N14       29.60R
FORT DRUM      NOT AVBL
MASSENA        CLOUDY    56  55  97 W12       29.57R
SARANAC LAKE   CLOUDY    59  58  96 SW8       29.58S
PLATTSBURGH    CLOUDY    64  63  96 S7        29.53S
$$

NYZ001>004-010>016-019>021-220400-
WEST


CITY           SKY/WX    TMP DP  RH WIND       PRES   REMARKS
NIAGARA FALLS  CLOUDY    56  51  84 NW21G30   29.70R
BUFFALO        MOCLDY    60  52  74 NW15      29.69R
DUNKIRK        CLOUDY    60  56  86 NW20G29   29.72R
JAMESTOWN      CLOUDY    54  50  87 W13G20    29.76R
WELLSVILLE     MOCLDY    55  48  77 W8        29.74R
ROCHESTER      PTCLDY    62  53  72 W9        29.66R
PENN YAN       CLEAR     60  50  69 SW13      29.68S
$$

             KEY
       WCI = WIND CHILL INDEX
       VSB = VISIBILITY
       HX  = HEAT INDEX
$$



USA.gov is the U.S. government's official web portal to all federal, state and local government web resources and services.